TimeMDT,TemperatureF,Dew PointF,Humidity,Sea Level PressureIn,VisibilityMPH,Wind Direction,Wind SpeedMPH,Gust SpeedMPH,PrecipitationIn,Events,Conditions,WindDirDegrees,DateUTC
12:15 AM,37.4,15.8,41,30.16,10.0,Calm,Calm,-,N/A,,Clear,0,2012-10-16 06:15:00
12:35 AM,39.2,17.6,42,30.15,10.0,Calm,Calm,-,N/A,,Clear,0,2012-10-16 06:35:00
12:55 AM,35.6,17.6,48,30.15,10.0,Calm,Calm,-,N/A,,Clear,0,2012-10-16 06:55:00
1:15 AM,37.4,19.4,48,30.14,10.0,Calm,Calm,-,N/A,,Clear,0,2012-10-16 07:15:00
1:35 AM,37.4,17.6,45,30.13,10.0,Calm,Calm,-,N/A,,Clear,0,2012-10-16 07:35:00
1:55 AM,37.4,17.6,45,30.14,10.0,Calm,Calm,-,N/A,,Clear,0,2012-10-16 07:55:00
2:15 AM,35.6,17.6,48,30.13,10.0,NNE,4.6,-,N/A,,Clear,20,2012-10-16 08:15:00
2:35 AM,37.4,19.4,48,30.12,10.0,North,4.6,-,N/A,,Clear,360,2012-10-16 08:35:00
2:55 AM,35.6,19.4,52,30.13,10.0,North,6.9,-,N/A,,Clear,360,2012-10-16 08:55:00
3:15 AM,35.6,17.6,48,30.13,10.0,NNE,8.1,-,N/A,,Clear,20,2012-10-16 09:15:00
3:35 AM,35.6,17.6,48,30.12,10.0,North,6.9,-,N/A,,Clear,10,2012-10-16 09:35:00
3:55 AM,35.6,17.6,48,30.12,10.0,North,6.9,-,N/A,,Clear,10,2012-10-16 09:55:00
4:15 AM,32.0,15.8,51,30.13,10.0,North,4.6,-,N/A,,Clear,10,2012-10-16 10:15:00
4:35 AM,30.2,15.8,55,30.13,10.0,NNE,8.1,-,N/A,,Clear,20,2012-10-16 10:35:00
4:55 AM,30.2,17.6,60,30.13,10.0,NNE,5.8,-,N/A,,Clear,30,2012-10-16 10:55:00
5:15 AM,30.2,17.6,60,30.13,10.0,North,3.5,-,N/A,,Clear,360,2012-10-16 11:15:00
5:35 AM,30.2,17.6,60,30.13,10.0,North,6.9,-,N/A,,Clear,350,2012-10-16 11:35:00
6:15 AM,30.2,17.6,60,30.13,10.0,North,5.8,-,N/A,,Clear,10,2012-10-16 12:15:00
6:35 AM,30.2,17.6,60,30.13,10.0,North,6.9,-,N/A,,Clear,350,2012-10-16 12:35:00
6:55 AM,28.4,17.6,64,30.12,10.0,North,8.1,-,N/A,,Clear,360,2012-10-16 12:55:00
7:15 AM,28.4,19.4,69,30.11,10.0,North,8.1,-,N/A,,Clear,10,2012-10-16 13:15:00
7:35 AM,32.0,21.2,64,30.12,10.0,NNE,8.1,-,N/A,,Clear,30,2012-10-16 13:35:00
7:55 AM,35.6,21.2,56,30.12,10.0,NNE,6.9,-,N/A,,Clear,20,2012-10-16 13:55:00
8:15 AM,39.2,23.0,52,30.13,10.0,Calm,Calm,-,N/A,,Clear,0,2012-10-16 14:15:00
8:35 AM,42.8,23.0,46,30.14,10.0,Calm,Calm,-,N/A,,Clear,0,2012-10-16 14:35:00
8:55 AM,44.6,24.8,46,30.14,10.0,Calm,Calm,-,N/A,,Clear,0,2012-10-16 14:55:00
9:15 AM,46.4,24.8,43,30.15,10.0,Calm,Calm,-,N/A,,Clear,0,2012-10-16 15:15:00
9:35 AM,50.0,24.8,37,30.14,10.0,Calm,Calm,-,N/A,,Clear,0,2012-10-16 15:35:00
9:55 AM,51.8,26.6,38,30.14,10.0,West,3.5,-,N/A,,Clear,280,2012-10-16 15:55:00
10:15 AM,53.6,26.6,35,30.14,10.0,WNW,4.6,-,N/A,,Clear,300,2012-10-16 16:15:00
10:35 AM,55.4,26.6,33,30.14,10.0,SW,4.6,-,N/A,,Clear,220,2012-10-16 16:35:00
10:55 AM,57.2,26.6,31,30.13,10.0,WSW,4.6,-,N/A,,Clear,250,2012-10-16 16:55:00
11:15 AM,59.0,26.6,29,30.12,10.0,WSW,4.6,-,N/A,,Clear,250,2012-10-16 17:15:00
11:35 AM,60.8,24.8,25,30.10,10.0,SW,6.9,-,N/A,,Clear,230,2012-10-16 17:35:00
11:55 AM,62.6,24.8,24,30.09,9.0,WSW,6.9,-,N/A,,Clear,250,2012-10-16 17:55:00
12:15 PM,62.6,24.8,24,30.08,10.0,SSW,5.8,-,N/A,,Clear,200,2012-10-16 18:15:00
12:35 PM,64.4,24.8,22,30.06,10.0,WSW,6.9,-,N/A,,Clear,250,2012-10-16 18:35:00
12:55 PM,66.2,24.8,21,30.05,10.0,SSW,6.9,-,0.07,,Clear,210,2012-10-16 18:55:00
1:15 PM,66.2,24.8,21,30.03,10.0,West,11.5,17.3,N/A,,Clear,260,2012-10-16 19:15:00
1:35 PM,68.0,24.8,20,30.03,-9999.0,WSW,13.8,20.7,N/A,,Unknown,240,2012-10-16 19:35:00
1:55 PM,69.8,24.8,18,30.01,10.0,WSW,10.4,20.7,N/A,,Clear,240,2012-10-16 19:55:00
2:15 PM,69.8,24.8,18,29.99,10.0,SW,17.3,23.0,N/A,,Clear,220,2012-10-16 20:15:00
2:35 PM,71.6,23.0,16,29.98,10.0,West,15.0,19.6,N/A,,Clear,260,2012-10-16 20:35:00
2:55 PM,71.6,23.0,16,29.97,10.0,West,18.4,26.5,N/A,,Clear,260,2012-10-16 20:55:00
3:15 PM,71.6,21.2,15,29.96,10.0,WSW,20.7,25.3,N/A,,Clear,250,2012-10-16 21:15:00
3:35 PM,71.6,23.0,16,29.96,10.0,WSW,20.7,27.6,N/A,,Clear,250,2012-10-16 21:35:00
3:55 PM,73.4,21.2,14,29.95,10.0,West,17.3,23.0,N/A,,Clear,270,2012-10-16 21:55:00
4:15 PM,71.6,21.2,15,29.95,10.0,West,16.1,25.3,N/A,,Clear,280,2012-10-16 22:15:00
4:35 PM,71.6,19.4,14,29.94,10.0,West,18.4,25.3,N/A,,Clear,280,2012-10-16 22:35:00
4:55 PM,71.6,19.4,14,29.94,10.0,West,15.0,23.0,N/A,,Clear,280,2012-10-16 22:55:00
5:15 PM,69.8,19.4,15,29.93,10.0,West,15.0,20.7,N/A,,Clear,270,2012-10-16 23:15:00
5:35 PM,69.8,17.6,14,29.93,10.0,West,15.0,18.4,N/A,,Clear,280,2012-10-16 23:35:00
5:55 PM,66.2,17.6,15,29.93,10.0,WNW,8.1,16.1,N/A,,Clear,300,2012-10-16 23:55:00
6:15 PM,64.4,17.6,16,29.93,10.0,WNW,8.1,-,N/A,,Clear,290,2012-10-17 00:15:00
6:35 PM,60.8,17.6,19,29.93,10.0,West,10.4,-,N/A,,Clear,270,2012-10-17 00:35:00
6:55 PM,59.0,17.6,20,29.93,10.0,West,9.2,-,N/A,,Clear,280,2012-10-17 00:55:00
7:15 PM,57.2,19.4,23,29.93,10.0,West,10.4,-,N/A,,Clear,270,2012-10-17 01:15:00
7:35 PM,59.0,17.6,20,29.93,10.0,West,10.4,-,N/A,,Clear,260,2012-10-17 01:35:00
7:55 PM,55.4,17.6,23,29.93,10.0,West,9.2,-,N/A,,Clear,260,2012-10-17 01:55:00
8:15 PM,55.4,17.6,23,29.93,10.0,West,10.4,17.3,N/A,,Clear,260,2012-10-17 02:15:00
8:35 PM,60.8,19.4,20,29.93,10.0,West,10.4,-,N/A,,Clear,280,2012-10-17 02:35:00
8:55 PM,57.2,17.6,21,29.94,10.0,WNW,5.8,-,N/A,,Clear,300,2012-10-17 02:55:00
9:35 PM,57.2,19.4,23,29.96,10.0,NW,4.6,-,N/A,,Clear,320,2012-10-17 03:35:00
9:55 PM,53.6,19.4,26,29.95,10.0,Calm,Calm,-,N/A,,Clear,0,2012-10-17 03:55:00
10:15 PM,51.8,17.6,26,29.96,10.0,ENE,3.5,-,N/A,,Clear,60,2012-10-17 04:15:00
10:35 PM,44.6,15.8,31,29.96,10.0,Calm,Calm,-,N/A,,Clear,0,2012-10-17 04:35:00
10:55 PM,46.4,15.8,29,29.96,10.0,East,3.5,-,N/A,,Clear,100,2012-10-17 04:55:00
11:15 PM,46.4,17.6,32,29.96,10.0,Calm,Calm,-,N/A,,Clear,0,2012-10-17 05:15:00
11:35 PM,50.0,17.6,28,29.97,10.0,Calm,Calm,-,N/A,,Clear,0,2012-10-17 05:35:00
11:55 PM,46.4,17.6,32,29.96,10.0,East,3.5,-,N/A,,Clear,90,2012-10-17 05:55:00